Cloud_Cover
100 100 67 100 70 100 100 100 100 100 88 70 93 100 100 100 100 100 100 100 18 1 4 7 97 100 100 100 100 100 100 100 100 100 100 100 100 100 100 100 100 100 100 100
100 100 100 97 88 69 82 49 97 100 95 82 100 100 100 100 100 100 100 100 43 5 5 26 100 97 5 100 100 100 100 100 100 100 100 100 100 100 100 100 100 100 47 100
100 81 100 100 96 100 100 80 75 63 91 100 100 50 100 100 100 100 100 99 100 14 0 5 99 100 72 95 100 100 100 100 100 100 100 100 100 100 100 100 100 100 100 96
100 99 100 98 100 52 100 64 97 98 91 87 100 100 65 100 100 100 100 99 100 39 1 3 92 100 100 99 11 99 100 100 100 100 100 100 100 100 100 100 100 100 100 69
96 90 100 100 99 100 100 100 10 65 6 73 100 100 100 100 100 100 100 100 100 99 13 18 100 100 97 100 100 90 90 100 100 100 100 100 100 100 100 100 100 100 100 100
15 51 50 100 95 97 100 100 100 100 69 61 100 100 100 100 100 100 100 100 92 73 40 100 100 100 100 100 100 100 100 100 100 100 100 100 100 100 100 100 100 100 100 100
25 99 76 80 100 100 100 100 100 100 98 100 100 100 100 100 100 100 84 100 100 100 92 51 14 14 59 94 100 100 100 100 100 100 100 100 100 100 100 100 100 100 100 100
19 75 50 100 100 100 100 100 100 88 96 100 100 100 100 100 100 99 76 100 100 100 78 6 5 6 19 70 98 100 100 100 100 76 100 100 100 100 100 100 100 100 100 100
100 100 100 100 100 100 100 100 100 100 100 100 100 100 100 100 78 100 100 100 100 100 100 100 100 100 100 100 100 100 100 100 100 99 100 100 100 100 100 100 100 100 100 100
100 100 100 100 100 100 100 100 100 100 100 100 100 100 100 74 100 100 100 100 100 100 100 100 100 100 100 100 100 100 100 100 100 100 74 86 98 100 100 100 100 100 100 100
100 100 99 100 100 100 100 100 100 100 100 100 99 61 100 100 100 100 100 100 100 100 100 100 100 100 100 100 100 100 100 100 100 100 100 100 100 100 100 100 100 100 100 100
95 100 80 100 100 100 100 100 100 100 100 100 100 100 100 100 100 100 100 100 100 100 100 86 86 28 26 84 24 21 8 64 6 6 42 100 100 100 100 100 100 100 100 100
100 100 100 100 100 100 100 97 100 100 100 100 100 96 100 100 100 99 100 21 3 10 50 24 66 15 100 96 29 8 6 24 100 86 95 100 100 100 100 100 100 100 100 100
100 98 100 100 100 100 100 100 100 100 100 100 100 100 100 100 59 83 22 5 5 5 21 100 64 74 100 98 15 5 83 26 95 99 100 100 100 100 100 100 100 100 100 100
100 100 100 94 100 100 100 100 100 100 100 100 100 100 100 100 52 5 36 20 5 46 5 94 100 37 2 76 76 100 100 100 100 100 100 100 100 100 100 100 100 100 100 100
100 99 92 100 94 100 100 100 100 100 100 100 100 100 100 94 7 8 5 20 99 59 99 100 100 11 100 81 93 38 100 100 100 99 100 100 100 100 100 100 100 100 100 100
100 100 100 56 100 100 96 100 100 100 98 100 97 97 90 5 42 87 16 86 100 100 100 100 100 99 89 86 100 100 100 76 88 100 100 100 100 100 100 100 100 100 100 100
100 100 100 100 100 82 74 41 91 100 99 100 13 52 96 85 56 81 100 100 100 100 86 100 100 86 31 100 100 100 100 100 100 100 100 100 100 100 100 100 100 100 100 100
100 100 100 100 85 65 20 48 90 92 16 39 22 90 100 79 78 100 100 100 100 100 98 100 100 96 47 99 100 99 100 100 100 100 100 100 100 100 100 100 100 100 100 100
100 100 99 59 43 88 5 100 100 95 5 7 73 100 100 100 100 100 100 100 99 66 100 97 93 100 99 81 100 100 100 100 100 100 100 100 100 100 100 100 100 100 100 100
100 100 100 100 100 90 100 100 39 11 23 76 100 100 100 100 100 100 100 99 85 99 100 100 55 48 94 33 100 100 100 100 100 100 100 100 100 100 100 100 100 100 100 100
100 100 100 100 100 80 65 85 39 3 97 100 100 100 100 100 100 100 100 100 100 97 100 100 100 100 32 54 31 100 100 100 100 100 100 100 100 100 100 100 100 100 100 100
76 100 83 67 5 88 98 42 5 100 100 100 100 100 100 100 100 100 100 100 100 100 97 100 100 100 73 26 80 100 100 100 100 100 100 100 100 100 100 100 100 100 100 100
20 95 98 82 74 100 20 92 100 100 100 100 100 100 100 100 100 100 100 100 100 38 82 66 100 100 100 100 23 65 100 100 100 100 100 100 100 100 100 100 100 100 100 100
61 71 33 83 95 100 100 100 100 100 100 100 100 100 100 100 100 100 100 100 100 100 93 18 15 33 83 63 100 4 100 100 100 100 100 100 100 100 100 100 100 100 100 100
100 100 100 100 100 100 100 100 100 100 100 100 100 100 100 100 100 100 100 93 100 100 98 54 15 95 33 45 98 47 42 100 100 100 100 100 100 100 100 100 100 100 100 100